星链-30546 (STARLINK-30546 )

导读 | 星芒AI

STARLINK-30546 是 SpaceX Starlink 卫星互联网项目中的第 30546 颗卫星。该卫星属于星链计划的组网卫星,旨在为全球提供高速、低延迟的互联网服务。它运行在近地轨道,配备先进通信设备,支持宽带数据传输。该卫星的发射和运行有助于扩大 Starlink 的覆盖范围,提升网络性能,并为偏远地区提供稳定网络连接。其设计注重可持续性,具备自动避撞功能,以减少太空碎片风险。

基本信息
目录编号:
58003
目录名称:
STARLINK-30546
国际标识:
2023-153N
轨道中心:
EARTH
卫星名称:
星链-30546
卫星全名:
星链-30546 (STARLINK-30546 )
卫星状态:
在轨 (已飞行806 天)
发射日期:
2023-10-05 UTC
国别 :
美国 (US)
星等 :
--
轨道信息
数据来源 国际轨道数据
星历时间: 2025-12-18T19:55:51+0800
1天前
查看轨道信息
半长轴: 6937.231km
偏心率: 0.0001226
轨道倾角: 43.002°
近地点辐角 269.834°
升交点赤经 149.859°
平近点角 90.237°
近地点: 558.245km
远地点: 559.947km
周期: 95.838分钟
每日圈数: 15.025315
详细信息
固有亮度:
5
最大亮度:
0.3
卫星平台:
Starlink v2.0 mini
覆盖范围:
全球
运营商:
太空探索技术公司
运营商所在国:
美国
制造商(研发单位):
太空探索技术公司
制造商所在国:
美国
使用方式:
暂无
卫星简介
星链(Starlink)计划是由太空探索技术公司(SpaceX)提出的一个巨型低轨卫星互联网星座项目,计划在2019年至2024年间在太空搭建由约1.2万颗卫星组成的“星链”网络,其中1584颗将部署在地球上空550千米处的近地轨道,并从2020年开始工作。该卫星仍在工作。
2D轨道图
3D轨道图
轨道高度分析图
轨道倾角分析图
轨道综合分析图
查看轨道综合分析图